Temperature
18 18 18 18 18 18 18 18 17 17 17 17 17 17 17 17 17 17 18 18 18 18 18 18 18 18 18 17 17 17 17 17 17 17 17 17 17 17 17 17 17 17 17
17 17 17 17 17 17 18 17 17 17 17 17 17 17 17 17 17 17 17 18 18 18 18 18 18 18 18 17 17 17 17 17 17 17 17 17 17 17 17 17 17 17 17
17 17 17 17 17 17 17 17 17 17 17 17 17 17 17 17 17 17 17 17 18 18 18 18 18 18 18 18 17 17 17 17 17 17 17 17 17 17 17 16 17 17 17
16 17 17 17 17 17 17 17 17 17 17 17 17 17 17 17 17 17 17 17 17 17 17 18 18 18 18 18 18 17 17 17 17 17 17 17 17 17 17 17 17 17 17
16 16 16 17 17 17 17 17 17 17 17 17 17 17 17 17 17 17 17 17 17 17 17 17 18 18 18 18 18 17 17 17 17 17 17 17 17 17 17 17 17 17 17
15 16 16 16 16 16 17 17 17 16 17 16 17 17 17 17 17 17 17 17 17 17 17 17 17 17 18 18 18 18 18 18 18 18 18 17 17 17 17 17 17 17 17
15 15 15 15 16 16 16 16 16 16 16 16 16 17 17 17 17 17 17 17 17 17 17 17 17 17 17 17 18 18 18 18 18 18 18 17 17 17 17 17 17 17 17
15 15 15 15 15 16 16 16 16 16 16 16 16 17 18 18 17 17 17 17 17 17 17 17 17 16 17 17 17 18 18 18 18 18 18 18 17 17 17 17 17 17 17
14 14 15 15 15 15 16 16 16 15 16 16 16 17 18 20 20 18 17 17 16 17 17 17 17 16 16 17 17 17 17 18 17 17 18 18 18 17 18 18 17 17 17
14 14 14 15 15 15 15 15 15 15 15 16 16 16 17 18 18 19 17 16 16 16 16 17 17 16 16 16 16 17 17 17 17 17 17 17 17 18 18 18 17 17 17
14 14 14 14 15 15 15 15 15 15 15 15 16 16 16 16 16 17 19 17 16 16 16 16 16 16 16 16 16 16 17 17 17 17 17 17 17 18 18 17 17 17 17
13 13 13 13 14 14 14 14 15 15 15 15 15 16 16 16 16 17 18 17 17 17 16 16 16 16 16 16 16 17 17 17 17 17 17 17 17 17 17 17 17 17 17
12 12 12 12 13 13 13 13 14 14 14 15 15 15 16 16 17 17 17 18 17 17 16 15 15 15 15 15 16 16 17 17 17 17 17 17 17 17 17 17 17 16 16
12 12 11 11 12 12 12 12 13 13 14 14 14 14 15 15 16 16 16 17 17 17 16 16 15 15 15 15 16 16 16 17 17 17 17 17 17 17 17 17 17 16 16
11 11 11 11 11 11 11 11 12 12 13 13 14 14 14 15 15 15 15 16 17 18 18 16 15 15 15 15 15 15 16 16 17 17 17 17 17 17 17 17 16 16 16
10 10 10 10 10 10 10 10 11 11 12 12 13 13 14 14 14 14 15 15 15 16 17 17 15 14 14 14 15 15 15 16 16 16 16 16 16 16 16 16 16 16 16
9 9 10 10 10 10 10 10 10 10 11 11 12 12 13 13 14 14 14 14 15 15 16 16 15 14 14 14 14 14 15 15 15 16 16 16 16 16 16 16 16 16 16
8 9 9 9 9 10 10 10 10 10 10 10 11 11 12 12 13 13 14 14 14 14 15 15 14 14 13 13 13 14 14 14 15 15 15 15 15 15 15 15 15 15 15
8 8 8 9 9 9 9 9 9 10 10 10 10 10 11 11 12 13 13 13 14 14 14 14 14 14 13 13 13 13 13 13 14 14 14 14 14 14 15 15 15 15 14
7 7 8 8 8 9 9 9 9 9 9 9 10 10 10 11 11 12 12 13 13 13 13 14 14 14 13 13 12 12 12 12 12 13 13 13 13 14 14 14 14 14 14
6 7 7 7 8 8 9 9 9 9 9 9 9 9 10 10 10 11 11 12 12 13 13 13 14 13 13 12 12 12 12 12 12 12 12 12 12 13 13 13 13 13 13
6 6 6 7 7 8 9 9 9 9 9 9 9 9 9 9 10 10 10 11 12 12 13 13 13 13 13 13 12 12 12 12 11 11 11 11 11 11 12 12 12 12 12
5 5 6 6 7 7 8 8 9 9 9 9 9 9 9 10 9 9 10 10 11 11 12 12 13 13 13 13 12 12 12 12 12 12 11 10 10 10 11 11 12 12 12
5 5 5 6 6 7 7 8 8 8 8 9 9 9 9 9 9 9 9 10 10 11 11 12 12 13 13 13 13 13 12 12 11 11 10 10 9 10 10 10 10 11 11
5 5 5 5 6 6 6 7 8 7 8 8 9 9 9 9 9 9 9 9 10 10 11 11 11 12 12 12 12 12 11 11 11 10 10 10 9 9 9 9 9 9 10
5 5 5 5 6 6 6 7 7 7 8 8 8 9 9 9 9 9 9 9 9 10 11 11 11 11 12 12 12 12 12 11 11 10 9 10 9 9 8 8 8 8 8
Wind_Speed
12 12 10 11 12 12 12 11 12 13 13 14 14 15 15 16 15 14 11 13 16 17 17 17 18 19 20 21 23 24 25 25 26 26 25 24 23 23 22 21 20 19 18
12 12 12 12 12 13 13 12 13 12 12 11 14 14 15 16 15 15 15 14 17 18 17 17 18 19 19 20 22 23 24 25 26 27 27 27 26 25 24 23 22 21 20
15 13 13 12 12 13 13 12 13 11 12 13 15 15 13 14 14 15 16 14 14 18 19 18 18 18 19 20 21 22 24 24 26 28 28 28 28 27 26 26 25 24 23
16 13 13 13 12 12 10 10 11 11 11 11 11 11 12 11 14 14 15 15 14 14 17 21 19 19 19 20 20 21 22 24 26 28 28 28 28 28 27 27 26 26 26
15 11 11 10 10 9 10 10 9 10 10 10 11 11 11 11 12 13 13 15 15 15 14 16 20 19 19 20 20 21 22 23 25 26 27 28 28 28 28 28 27 27 27
11 9 8 9 9 8 9 9 9 9 8 9 11 10 9 10 10 11 13 13 13 15 16 15 14 17 21 20 21 22 22 24 25 26 26 26 27 27 28 28 28 28 28
7 6 6 7 7 7 8 9 8 9 9 8 8 9 10 11 11 10 11 11 12 13 13 12 13 13 13 21 22 22 22 24 25 25 26 26 26 27 27 28 28 28 28
7 5 5 6 7 7 7 7 8 8 8 8 8 8 8 9 9 11 10 10 11 10 11 12 12 11 11 11 17 23 22 23 24 25 25 26 27 27 28 28 28 28 28
9 7 6 6 7 7 7 7 8 11 9 9 10 8 7 7 6 7 8 9 9 8 9 9 11 11 12 12 11 19 22 21 23 24 24 25 26 27 28 28 28 28 28
8 7 6 7 7 6 7 8 9 10 11 10 9 9 9 6 5 5 8 9 9 8 8 7 8 9 10 10 10 7 13 16 18 21 23 25 26 27 27 27 27 27 27
7 7 7 7 7 6 7 8 8 10 10 11 9 8 9 7 9 7 6 7 8 8 8 7 7 7 8 8 8 7 9 12 14 16 19 22 24 25 26 26 26 26 26
6 6 6 5 5 6 6 7 9 11 11 11 10 9 8 8 9 9 8 7 7 7 6 5 6 6 5 6 5 2 2 7 11 12 14 16 19 22 24 25 25 25 24
8 6 6 5 5 5 6 6 8 10 11 12 11 10 10 9 8 8 8 7 6 5 5 6 5 3 2 2 1 2 2 4 7 9 10 11 13 16 19 21 21 21 21
11 9 8 7 7 7 7 6 7 9 9 11 13 12 10 10 9 9 8 7 7 7 7 6 5 4 2 1 3 1 3 4 5 6 7 8 9 11 13 15 16 16 16
12 12 11 10 9 8 8 7 7 8 8 10 11 13 12 10 10 10 9 9 8 7 7 7 5 5 4 3 3 3 5 9 8 8 8 8 8 8 9 9 10 10 11
15 15 15 13 12 11 10 9 8 8 9 9 8 12 12 11 10 10 10 10 9 8 6 6 5 6 5 4 6 7 9 12 12 11 11 10 10 10 10 10 9 8 7
16 16 16 15 15 14 13 11 11 10 10 10 9 10 13 13 10 11 11 10 10 9 8 6 5 6 6 6 6 7 7 8 11 14 14 14 13 13 13 12 12 11 10
17 17 17 16 16 16 15 14 13 13 12 12 11 10 10 10 14 12 10 12 11 10 9 8 7 6 6 8 8 8 7 8 10 14 15 15 15 15 16 15 15 15 14
17 17 17 17 17 17 16 16 15 14 13 13 12 11 10 10 11 11 13 12 11 11 10 9 8 7 6 8 9 8 9 8 9 12 14 15 15 16 16 17 17 17 17
18 18 18 18 18 18 18 17 16 15 14 13 12 11 11 10 10 9 10 12 11 11 11 10 9 8 8 9 9 8 7 6 7 8 10 12 15 16 16 16 17 17 18
19 18 18 18 18 18 18 18 17 17 15 14 13 13 12 12 11 8 7 8 9 10 10 10 10 9 9 10 9 8 9 8 6 6 8 8 9 10 12 15 16 17 19
19 18 18 19 19 18 16 15 16 16 15 15 14 13 12 13 13 13 11 9 8 9 10 10 11 11 12 12 11 11 11 10 5 5 7 7 7 8 9 12 16 18 19
18 18 18 18 18 18 14 13 16 17 16 15 14 13 12 12 13 12 13 13 11 10 9 9 10 11 12 13 14 15 13 12 7 9 9 8 7 9 10 14 17 19 20
16 16 16 16 16 16 14 14 14 17 17 16 15 14 13 11 12 11 11 12 12 11 11 10 11 10 10 12 15 15 13 9 10 7 6 7 8 9 10 13 15 17 19
14 14 14 14 14 13 13 14 14 14 15 17 16 16 15 14 11 11 11 13 13 11 11 11 10 8 5 7 12 13 14 13 9 7 5 6 9 10 9 9 12 15 17
13 12 12 12 12 12 12 14 14 12 14 14 14 15 14 13 11 13 12 12 13 12 10 11 10 9 9 12 16 17 17 15 11 7 7 7 12 10 7 8 10 13 13
Wind_Direction
241 238 238 239 238 235 229 231 238 240 241 240 239 238 239 237 238 238 235 212 219 225 228 229 229 227 224 219 216 217 217 217 215 214 213 215 214 211 208 207 207 206 205
249 246 241 239 240 240 241 240 241 242 244 243 242 240 239 239 237 235 236 225 219 223 227 228 228 226 223 220 217 217 218 220 218 216 215 215 215 214 212 209 209 209 208
251 247 246 242 242 242 241 243 248 248 246 244 242 241 238 238 237 234 235 235 228 218 220 225 226 224 223 222 220 219 218 220 221 218 216 215 215 214 214 212 211 210 210
258 250 246 245 244 242 240 240 243 244 244 245 244 243 240 235 236 234 233 232 234 234 219 215 220 223 223 222 221 219 217 220 221 217 216 215 214 214 214 214 214 212 212
264 255 249 249 247 243 240 242 238 241 243 242 242 238 238 235 234 233 233 234 232 233 236 213 210 219 223 223 221 219 218 220 220 217 216 217 216 215 214 214 215 215 215
273 266 255 256 253 243 237 235 241 240 244 244 249 246 235 234 233 234 236 234 234 232 232 233 220 219 218 221 221 220 220 219 218 216 216 218 218 216 215 215 216 217 217
300 282 276 266 260 252 242 235 232 235 234 233 242 246 238 234 232 234 234 238 233 232 236 233 232 236 217 212 217 219 219 218 215 214 214 216 219 218 217 218 217 218 219
323 298 287 284 267 260 251 243 235 244 240 224 236 245 243 228 220 228 227 226 234 227 226 226 229 230 242 227 212 211 219 220 217 215 213 213 216 218 218 218 218 219 220
346 336 310 293 279 269 259 249 238 238 242 231 229 241 245 242 217 199 214 221 219 224 229 227 225 226 231 239 232 205 210 217 219 217 216 213 214 214 213 214 217 218 220
347 349 338 322 306 286 269 255 242 239 238 236 224 234 254 288 262 209 194 201 208 218 230 232 231 226 230 237 235 234 203 214 219 222 220 217 214 213 212 213 215 218 219
338 345 347 339 326 306 286 269 256 241 233 237 234 222 223 228 241 259 223 192 199 209 213 225 237 239 237 238 238 225 198 212 219 223 223 220 216 213 212 213 216 217 217
317 324 324 326 318 308 298 279 262 245 241 241 242 236 225 221 221 227 234 222 214 207 207 220 229 229 235 238 232 71 182 214 220 221 223 223 218 214 212 214 216 216 217
297 297 301 302 300 296 293 288 273 259 245 239 235 235 235 234 234 228 234 229 223 208 204 209 200 207 220 232 171 60 166 208 212 214 216 216 215 212 209 210 212 213 215
289 286 276 270 273 278 279 274 274 269 256 244 239 237 237 233 229 227 230 229 222 215 204 194 160 170 161 161 81 318 119 112 150 170 181 183 189 193 197 200 203 207 210
282 277 270 264 258 256 260 264 263 267 269 256 245 237 236 236 229 226 226 230 232 224 201 178 179 152 148 114 101 94 88 86 101 114 121 129 140 150 159 170 182 192 200
279 276 270 264 259 252 246 248 255 255 258 262 260 249 237 236 229 224 222 223 228 238 230 168 166 150 137 127 107 98 95 92 85 95 103 108 114 121 128 134 137 144 155
277 272 267 264 260 254 247 242 246 247 248 250 253 255 246 239 232 223 220 219 220 222 223 195 163 151 150 142 127 116 108 101 93 88 93 97 101 105 108 112 115 116 116
277 272 266 261 257 253 247 242 241 243 242 244 243 244 251 245 235 230 222 219 217 215 219 210 181 171 161 150 136 125 113 100 98 88 90 92 94 97 99 100 100 101 101
280 273 267 260 254 251 248 242 238 238 239 241 241 239 239 242 241 232 226 220 216 210 214 213 198 173 157 148 137 125 114 108 103 103 96 92 92 93 95 97 97 98 97
280 273 266 259 253 248 245 241 237 234 234 236 237 237 235 234 238 239 233 228 222 214 206 211 201 181 164 156 151 144 131 125 117 110 97 100 99 95 94 96 98 100 100
281 274 266 258 252 246 241 237 235 232 230 231 229 229 230 228 232 238 242 235 224 218 209 207 203 189 176 168 169 162 144 129 112 128 127 126 124 115 108 104 102 102 102
283 276 267 259 252 246 234 221 229 235 230 228 228 225 222 215 220 223 236 247 244 228 217 212 208 200 190 181 173 162 153 150 143 154 136 122 122 115 109 102 105 107 106
286 278 268 258 251 247 235 212 215 230 231 228 226 223 225 214 201 216 216 222 237 243 242 235 225 214 198 186 175 172 174 172 151 156 142 123 120 107 102 103 110 111 110
285 278 268 259 251 243 224 210 208 225 231 228 224 222 224 224 212 211 216 214 217 220 225 232 238 235 220 193 182 178 164 131 117 141 144 127 128 116 111 113 112 114 114
287 280 270 258 248 239 218 203 203 224 225 226 224 221 220 221 200 195 221 222 216 214 216 228 245 254 250 195 175 162 152 147 142 156 167 138 141 128 122 124 121 118 119
290 284 272 260 246 234 210 196 202 224 223 221 219 219 215 223 190 185 220 227 223 213 203 207 217 226 216 190 173 174 170 166 152 156 177 154 153 144 134 141 145 146 135
Height
1526 1527 1527 1528 1529 1530 1531 1531 1532 1533 1534 1535 1536 1537 1538 1540 1541 1542 1543 1543 1545 1546 1548 1549 1551 1553 1556 1558 1560 1562 1564 1566 1569 1571 1573 1575 1577 1580 1582 1584 1586 1588 1590
1520 1521 1521 1522 1523 1524 1525 1526 1527 1527 1528 1530 1530 1531 1532 1534 1535 1536 1538 1539 1540 1542 1543 1545 1547 1549 1551 1553 1555 1558 1560 1562 1564 1567 1569 1572 1574 1576 1579 1581 1583 1586 1587
1514 1514 1514 1515 1517 1519 1519 1519 1520 1521 1522 1524 1524 1525 1526 1527 1529 1530 1532 1534 1536 1537 1538 1540 1542 1544 1546 1548 1551 1553 1555 1558 1560 1563 1565 1567 1570 1572 1575 1577 1580 1583 1585
1506 1506 1507 1509 1510 1512 1513 1513 1514 1516 1516 1518 1518 1519 1520 1521 1522 1524 1526 1528 1530 1533 1534 1535 1537 1539 1541 1543 1546 1548 1550 1553 1556 1558 1561 1563 1565 1568 1570 1573 1576 1579 1581
1499 1499 1500 1502 1504 1505 1506 1507 1509 1510 1511 1512 1513 1514 1515 1516 1517 1519 1521 1523 1525 1527 1529 1530 1531 1533 1535 1538 1540 1543 1545 1548 1551 1553 1556 1559 1561 1563 1566 1569 1571 1574 1577
1493 1493 1493 1494 1497 1498 1500 1501 1503 1504 1506 1507 1509 1510 1510 1511 1512 1514 1516 1518 1520 1521 1524 1526 1526 1528 1529 1532 1534 1537 1540 1543 1545 1548 1551 1554 1557 1559 1561 1564 1567 1570 1573
1488 1487 1486 1488 1491 1492 1493 1495 1497 1499 1501 1503 1505 1506 1507 1507 1508 1509 1511 1513 1515 1516 1518 1520 1521 1523 1525 1525 1528 1531 1534 1536 1539 1543 1546 1549 1552 1554 1557 1560 1563 1565 1568
1485 1484 1483 1484 1486 1488 1488 1490 1492 1495 1497 1500 1502 1503 1503 1504 1503 1504 1505 1507 1509 1512 1513 1515 1516 1517 1519 1522 1522 1524 1527 1530 1533 1537 1540 1543 1546 1549 1552 1555 1558 1561 1563
1485 1483 1482 1483 1483 1483 1484 1486 1488 1490 1494 1496 1498 1499 1499 1498 1498 1500 1501 1502 1504 1507 1509 1511 1512 1513 1514 1516 1518 1519 1521 1524 1527 1531 1534 1537 1540 1543 1547 1550 1553 1556 1558
1483 1481 1480 1480 1479 1480 1480 1482 1484 1487 1489 1492 1493 1494 1496 1496 1497 1496 1498 1499 1500 1502 1505 1506 1508 1509 1510 1511 1513 1514 1516 1518 1521 1524 1528 1531 1534 1537 1541 1544 1547 1550 1553
1481 1479 1478 1477 1476 1476 1477 1478 1480 1483 1485 1487 1489 1490 1491 1493 1494 1495 1495 1497 1498 1499 1501 1502 1503 1505 1506 1507 1508 1509 1511 1513 1516 1519 1522 1525 1528 1531 1534 1538 1541 1544 1547
1479 1477 1475 1474 1473 1473 1473 1474 1476 1478 1480 1482 1484 1486 1488 1489 1490 1492 1493 1494 1495 1496 1497 1498 1499 1500 1501 1503 1504 1504 1506 1508 1511 1514 1516 1519 1523 1525 1528 1531 1535 1538 1541
1477 1474 1473 1471 1470 1469 1469 1470 1471 1472 1474 1476 1478 1481 1483 1485 1487 1488 1490 1490 1491 1493 1494 1495 1495 1495 1497 1498 1499 1500 1502 1504 1506 1509 1512 1514 1517 1520 1523 1525 1529 1532 1534
1473 1471 1468 1467 1466 1465 1465 1465 1465 1466 1468 1470 1472 1474 1477 1480 1482 1484 1486 1487 1488 1490 1491 1492 1491 1492 1493 1494 1495 1496 1498 1500 1502 1505 1508 1510 1513 1516 1518 1521 1524 1526 1529
1468 1466 1464 1463 1461 1460 1460 1460 1460 1460 1461 1463 1465 1468 1471 1474 1476 1479 1481 1483 1485 1485 1486 1488 1488 1488 1489 1490 1492 1493 1495 1497 1499 1501 1504 1507 1509 1511 1514 1517 1519 1522 1524
1460 1459 1458 1457 1456 1455 1455 1454 1454 1454 1455 1456 1458 1461 1464 1467 1470 1473 1476 1478 1480 1482 1483 1484 1485 1486 1486 1488 1489 1490 1492 1494 1496 1499 1501 1503 1506 1508 1510 1513 1515 1517 1520
1452 1451 1450 1450 1450 1449 1449 1449 1449 1449 1449 1450 1451 1453 1456 1460 1464 1467 1470 1472 1475 1477 1479 1481 1482 1483 1483 1485 1486 1488 1490 1492 1494 1496 1498 1501 1503 1505 1507 1509 1511 1514 1516
1443 1442 1442 1441 1442 1442 1443 1443 1443 1443 1444 1444 1445 1446 1448 1452 1456 1460 1463 1466 1469 1472 1475 1477 1479 1480 1481 1482 1484 1486 1488 1490 1492 1494 1496 1499 1501 1503 1505 1507 1508 1511 1513
1434 1433 1432 1432 1433 1434 1435 1436 1437 1437 1438 1438 1439 1441 1442 1444 1448 1452 1456 1459 1463 1466 1469 1473 1475 1476 1478 1480 1482 1484 1486 1488 1490 1492 1495 1497 1499 1501 1503 1505 1507 1508 1510
1424 1423 1422 1423 1423 1424 1426 1428 1429 1431 1432 1432 1433 1434 1436 1438 1440 1443 1448 1452 1456 1460 1463 1467 1470 1473 1474 1477 1479 1481 1484 1487 1489 1491 1493 1496 1498 1500 1502 1503 1505 1507 1509
1414 1413 1412 1412 1413 1414 1416 1418 1421 1423 1425 1427 1428 1429 1430 1432 1433 1436 1440 1444 1449 1453 1457 1461 1465 1468 1470 1472 1476 1479 1481 1484 1487 1490 1493 1496 1498 1499 1501 1503 1505 1507 1508
1405 1403 1401 1401 1402 1404 1406 1409 1412 1415 1418 1420 1422 1424 1425 1426 1428 1430 1433 1437 1442 1446 1450 1455 1459 1462 1465 1468 1472 1475 1478 1481 1485 1489 1492 1495 1497 1499 1501 1502 1504 1506 1508
1395 1392 1391 1390 1391 1393 1396 1399 1403 1407 1410 1413 1415 1418 1420 1422 1423 1425 1428 1431 1434 1439 1444 1449 1453 1457 1461 1464 1467 1471 1475 1479 1482 1485 1490 1493 1496 1498 1500 1502 1504 1507 1509
1385 1382 1380 1380 1381 1383 1386 1390 1394 1398 1402 1405 1409 1411 1414 1417 1418 1420 1423 1425 1428 1432 1436 1442 1447 1452 1457 1460 1463 1467 1472 1475 1480 1484 1488 1491 1494 1497 1499 1502 1504 1507 1509
1376 1373 1372 1371 1372 1374 1378 1382 1386 1390 1394 1398 1402 1405 1408 1411 1413 1415 1418 1420 1423 1425 1430 1435 1441 1446 1450 1455 1459 1463 1467 1471 1475 1481 1485 1488 1492 1496 1499 1501 1504 1507 1509
1369 1367 1365 1364 1364 1366 1370 1374 1379 1384 1387 1391 1395 1398 1402 1405 1408 1410 1413 1415 1417 1420 1424 1429 1434 1439 1444 1449 1454 1458 1462 1466 1470 1476 1481 1485 1489 1494 1499 1502 1503 1506 1508